Time,TemperatureF,DewpointF,PressureIn,WindDirection,WindDirectionDegrees,WindSpeedMPH,WindSpeedGustMPH,Humidity,HourlyPrecipIn,Conditions,Clouds,dailyrainin,SoftwareType,DateUTC
2013-09-29 00:01:00,61.6,57.7,30.18,East,94,0.0,5.0,87,0.00,,,0.00,VWS V14.01,2013-09-29 04:01:00,
2013-09-29 00:04:00,61.6,57.7,30.18,East,86,0.0,5.0,87,0.00,,,0.00,VWS V14.01,2013-09-29 04:04:00,
2013-09-29 00:05:00,61.6,57.7,30.17,East,98,0.0,5.0,87,0.00,,,0.00,VWS V14.01,2013-09-29 04:05:00,
2013-09-29 00:09:00,61.6,58.0,30.17,East,98,2.0,5.0,88,0.00,,,0.00,VWS V14.01,2013-09-29 04:09:00,
2013-09-29 00:10:00,61.6,58.0,30.17,East,96,0.0,5.0,88,0.00,,,0.00,VWS V14.01,2013-09-29 04:10:00,
2013-09-29 00:11:00,61.6,58.0,30.17,East,98,0.0,5.0,88,0.00,,,0.00,VWS V14.01,2013-09-29 04:11:00,
2013-09-29 00:13:00,61.6,58.0,30.17,ESE,102,0.0,6.0,88,0.00,,,0.00,VWS V14.01,2013-09-29 04:13:00,
2013-09-29 00:14:00,61.6,58.0,30.17,ESE,102,2.0,6.0,88,0.00,,,0.00,VWS V14.01,2013-09-29 04:14:00,
2013-09-29 00:15:00,61.6,58.0,30.17,ESE,104,0.0,6.0,88,0.00,,,0.00,VWS V14.01,2013-09-29 04:15:00,
2013-09-29 00:16:00,61.6,58.0,30.17,East,95,2.0,6.0,88,0.00,,,0.00,VWS V14.01,2013-09-29 04:16:00,
2013-09-29 00:18:00,61.6,58.0,30.17,East,95,0.0,6.0,88,0.00,,,0.00,VWS V14.01,2013-09-29 04:18:00,
2013-09-29 00:20:00,61.6,58.0,30.17,ESE,109,1.0,6.0,88,0.00,,,0.00,VWS V14.01,2013-09-29 04:20:00,
2013-09-29 00:21:00,61.6,58.0,30.17,East,101,5.0,6.0,88,0.00,,,0.00,VWS V14.01,2013-09-29 04:21:00,
2013-09-29 00:22:00,61.6,58.0,30.17,ESE,111,0.0,6.0,88,0.00,,,0.00,VWS V14.01,2013-09-29 04:22:00,
2013-09-29 00:23:00,61.6,58.0,30.17,ESE,111,0.0,6.0,88,0.00,,,0.00,VWS V14.01,2013-09-29 04:23:00,
2013-09-29 00:27:00,61.6,58.0,30.17,East,94,2.0,6.0,88,0.00,,,0.00,VWS V14.01,2013-09-29 04:27:00,
2013-09-29 00:28:00,61.6,58.0,30.17,East,94,0.0,6.0,88,0.00,,,0.00,VWS V14.01,2013-09-29 04:28:00,
2013-09-29 00:30:00,61.6,58.0,30.17,East,90,0.0,6.0,88,0.00,,,0.00,VWS V14.01,2013-09-29 04:30:00,
2013-09-29 00:32:00,61.6,58.0,30.17,East,84,3.0,6.0,88,0.00,,,0.00,VWS V14.01,2013-09-29 04:32:00,
2013-09-29 00:33:00,61.6,58.0,30.17,East,87,3.0,6.0,88,0.00,,,0.00,VWS V14.01,2013-09-29 04:33:00,
2013-09-29 00:34:00,61.6,58.0,30.17,East,95,0.0,6.0,88,0.00,,,0.00,VWS V14.01,2013-09-29 04:34:00,
2013-09-29 00:35:00,61.6,58.0,30.17,ESE,105,0.0,6.0,88,0.00,,,0.00,VWS V14.01,2013-09-29 04:35:00,
2013-09-29 00:39:00,61.6,58.0,30.17,East,96,0.0,0.0,88,0.00,,,0.00,VWS V14.01,2013-09-29 04:39:00,
2013-09-29 00:40:00,61.6,58.0,30.17,East,96,0.0,1.0,88,0.00,,,0.00,VWS V14.01,2013-09-29 04:40:00,
2013-09-29 00:42:00,61.6,58.0,30.17,East,91,2.0,4.0,88,0.00,,,0.00,VWS V14.01,2013-09-29 04:42:00,
2013-09-29 00:46:00,61.6,58.0,30.17,East,89,0.0,5.0,88,0.00,,,0.00,VWS V14.01,2013-09-29 04:46:00,
2013-09-29 00:47:00,61.6,58.0,30.17,East,92,1.0,5.0,88,0.00,,,0.00,VWS V14.01,2013-09-29 04:47:00,
2013-09-29 00:48:00,61.6,58.0,30.17,East,90,0.0,5.0,88,0.00,,,0.00,VWS V14.01,2013-09-29 04:48:00,
2013-09-29 00:50:00,61.5,57.9,30.17,East,92,0.0,5.0,88,0.00,,,0.00,VWS V14.01,2013-09-29 04:50:00,
2013-09-29 00:51:00,61.5,57.9,30.17,East,87,0.0,5.0,88,0.00,,,0.00,VWS V14.01,2013-09-29 04:51:00,
2013-09-29 00:55:00,61.5,57.9,30.17,East,90,0.0,5.0,88,0.00,,,0.00,VWS V14.01,2013-09-29 04:55:00,
2013-09-29 00:57:00,61.5,57.9,30.17,East,94,0.0,5.0,88,0.00,,,0.00,VWS V14.01,2013-09-29 04:57:00,
2013-09-29 00:58:00,61.5,57.9,30.17,East,95,0.0,5.0,88,0.00,,,0.00,VWS V14.01,2013-09-29 04:58:00,
2013-09-29 01:00:00,61.5,57.9,30.17,East,101,5.0,5.0,88,0.00,,,0.00,VWS V14.01,2013-09-29 05:00:00,
2013-09-29 01:01:00,61.5,57.9,30.17,East,92,0.0,5.0,88,0.00,,,0.00,VWS V14.01,2013-09-29 05:01:00,
2013-09-29 01:04:00,61.5,57.9,30.17,East,82,0.0,7.0,88,0.00,,,0.00,VWS V14.01,2013-09-29 05:04:00,
2013-09-29 01:06:00,61.5,57.9,30.16,ESE,110,2.0,7.0,88,0.00,,,0.00,VWS V14.01,2013-09-29 05:06:00,
2013-09-29 01:08:00,61.5,57.9,30.16,East,93,0.0,5.0,88,0.00,,,0.00,VWS V14.01,2013-09-29 05:08:00,
2013-09-29 01:09:00,61.5,57.9,30.16,East,95,0.0,5.0,88,0.00,,,0.00,VWS V14.01,2013-09-29 05:09:00,
2013-09-29 01:12:00,61.5,58.2,30.16,East,88,0.0,6.0,89,0.00,,,0.00,VWS V14.01,2013-09-29 05:12:00,
2013-09-29 01:14:00,61.5,58.2,30.16,ESE,115,2.0,6.0,89,0.00,,,0.00,VWS V14.01,2013-09-29 05:14:00,
2013-09-29 01:17:00,61.5,58.2,30.16,East,94,0.0,6.0,89,0.00,,,0.00,VWS V14.01,2013-09-29 05:17:00,
2013-09-29 01:19:00,61.5,58.2,30.16,East,92,0.0,6.0,89,0.00,,,0.00,VWS V14.01,2013-09-29 05:19:00,
2013-09-29 01:20:00,61.5,58.2,30.17,ESE,113,0.0,6.0,89,0.00,,,0.00,VWS V14.01,2013-09-29 05:20:00,
2013-09-29 01:23:00,61.5,58.2,30.17,East,96,0.0,6.0,89,0.00,,,0.00,VWS V14.01,2013-09-29 05:23:00,
2013-09-29 01:24:00,61.3,58.0,30.17,East,94,0.0,6.0,89,0.00,,,0.00,VWS V14.01,2013-09-29 05:24:00,
2013-09-29 01:28:00,61.5,58.2,30.17,East,92,0.0,6.0,89,0.00,,,0.00,VWS V14.01,2013-09-29 05:28:00,
2013-09-29 01:29:00,61.5,58.2,30.17,East,86,0.0,6.0,89,0.00,,,0.00,VWS V14.01,2013-09-29 05:29:00,
2013-09-29 01:30:00,61.3,58.0,30.17,East,86,0.0,6.0,89,0.00,,,0.00,VWS V14.01,2013-09-29 05:30:00,
2013-09-29 01:32:00,61.3,58.0,30.17,East,88,0.0,6.0,89,0.00,,,0.00,VWS V14.01,2013-09-29 05:32:00,
2013-09-29 01:36:00,61.3,58.0,30.17,ESE,105,0.0,6.0,89,0.00,,,0.00,VWS V14.01,2013-09-29 05:36:00,
2013-09-29 01:37:00,61.3,58.0,30.17,East,100,0.0,0.0,89,0.00,,,0.00,VWS V14.01,2013-09-29 05:37:00,
2013-09-29 01:41:00,61.3,58.0,30.17,East,98,0.0,6.0,89,0.00,,,0.00,VWS V14.01,2013-09-29 05:41:00,
2013-09-29 01:42:00,61.3,58.0,30.17,ESE,105,0.0,7.0,89,0.00,,,0.00,VWS V14.01,2013-09-29 05:42:00,
2013-09-29 01:44:00,61.3,58.0,30.17,ESE,102,5.0,7.0,89,0.00,,,0.00,VWS V14.01,2013-09-29 05:44:00,
2013-09-29 01:48:00,61.2,57.9,30.17,East,94,2.0,7.0,89,0.00,,,0.00,VWS V14.01,2013-09-29 05:48:00,
2013-09-29 01:49:00,61.2,57.9,30.17,East,98,4.0,7.0,89,0.00,,,0.00,VWS V14.01,2013-09-29 05:49:00,
2013-09-29 01:51:00,61.2,57.9,30.16,East,96,0.0,7.0,89,0.00,,,0.00,VWS V14.01,2013-09-29 05:51:00,
2013-09-29 01:54:00,61.0,57.7,30.16,East,96,0.0,7.0,89,0.00,,,0.00,VWS V14.01,2013-09-29 05:54:00,
2013-09-29 01:55:00,61.0,57.7,30.16,ESE,114,2.0,7.0,89,0.00,,,0.00,VWS V14.01,2013-09-29 05:55:00,
2013-09-29 01:56:00,61.0,57.7,30.16,ESE,109,0.0,7.0,89,0.00,,,0.00,VWS V14.01,2013-09-29 05:56:00,
2013-09-29 01:59:00,61.0,57.7,30.16,East,98,0.0,7.0,89,0.00,,,0.00,VWS V14.01,2013-09-29 05:59:00,
2013-09-29 02:02:00,61.0,57.7,30.16,East,94,2.0,7.0,89,0.00,,,0.00,VWS V14.01,2013-09-29 06:02:00,
2013-09-29 02:07:00,61.0,57.7,30.16,East,98,0.0,0.0,89,0.00,,,0.00,VWS V14.01,2013-09-29 06:07:00,
2013-09-29 02:08:00,61.0,57.7,30.16,ESE,103,4.0,4.0,89,0.00,,,0.00,VWS V14.01,2013-09-29 06:08:00,
2013-09-29 02:09:00,61.0,57.7,30.16,East,101,0.0,5.0,89,0.00,,,0.00,VWS V14.01,2013-09-29 06:09:00,
2013-09-29 02:12:00,61.0,57.7,30.16,East,98,0.0,5.0,89,0.00,,,0.00,VWS V14.01,2013-09-29 06:12:00,
2013-09-29 02:13:00,61.0,57.7,30.16,ESE,104,0.0,5.0,89,0.00,,,0.00,VWS V14.01,2013-09-29 06:13:00,
2013-09-29 02:14:00,61.0,57.7,30.16,East,93,0.0,5.0,89,0.00,,,0.00,VWS V14.01,2013-09-29 06:14:00,
2013-09-29 02:15:00,61.0,57.7,30.16,East,91,0.0,5.0,89,0.00,,,0.00,VWS V14.01,2013-09-29 06:15:00,
2013-09-29 02:18:00,61.0,57.7,30.16,East,84,0.0,5.0,89,0.00,,,0.00,VWS V14.01,2013-09-29 06:18:00,
2013-09-29 02:21:00,61.0,57.7,30.16,East,80,3.0,5.0,89,0.00,,,0.00,VWS V14.01,2013-09-29 06:21:00,
2013-09-29 02:23:00,61.0,57.7,30.16,East,81,0.0,5.0,89,0.00,,,0.00,VWS V14.01,2013-09-29 06:23:00,
2013-09-29 02:24:00,61.0,57.7,30.16,East,82,0.0,5.0,89,0.00,,,0.00,VWS V14.01,2013-09-29 06:24:00,
2013-09-29 02:25:00,61.0,57.7,30.16,East,94,1.0,5.0,89,0.00,,,0.00,VWS V14.01,2013-09-29 06:25:00,
2013-09-29 02:26:00,61.0,57.7,30.16,East,88,0.0,5.0,89,0.00,,,0.00,VWS V14.01,2013-09-29 06:26:00,
2013-09-29 02:30:00,60.9,57.3,30.16,East,86,0.0,5.0,88,0.00,,,0.00,VWS V14.01,2013-09-29 06:30:00,
2013-09-29 02:32:00,60.9,57.3,30.16,East,86,0.0,5.0,88,0.00,,,0.00,VWS V14.01,2013-09-29 06:32:00,
2013-09-29 02:33:00,60.9,57.3,30.16,East,86,0.0,5.0,88,0.00,,,0.00,VWS V14.01,2013-09-29 06:33:00,
2013-09-29 02:36:00,60.9,57.3,30.15,East,86,0.0,5.0,88,0.00,,,0.00,VWS V14.01,2013-09-29 06:36:00,
2013-09-29 02:40:00,60.9,57.3,30.15,East,86,0.0,2.0,88,0.00,,,0.00,VWS V14.01,2013-09-29 06:40:00,
2013-09-29 02:41:00,60.9,57.3,30.15,ENE,75,0.0,4.0,88,0.00,,,0.00,VWS V14.01,2013-09-29 06:41:00,
2013-09-29 02:43:00,60.9,57.3,30.15,ENE,73,2.0,5.0,88,0.00,,,0.00,VWS V14.01,2013-09-29 06:43:00,
2013-09-29 02:45:00,61.0,57.4,30.15,ENE,76,1.0,5.0,88,0.00,,,0.00,VWS V14.01,2013-09-29 06:45:00,
2013-09-29 02:46:00,61.0,57.4,30.15,ENE,67,3.0,5.0,88,0.00,,,0.00,VWS V14.01,2013-09-29 06:46:00,
2013-09-29 02:49:00,61.0,57.4,30.15,ENE,63,0.0,5.0,88,0.00,,,0.00,VWS V14.01,2013-09-29 06:49:00,
2013-09-29 02:50:00,61.0,57.4,30.14,ENE,57,0.0,5.0,88,0.00,,,0.00,VWS V14.01,2013-09-29 06:50:00,
2013-09-29 02:51:00,61.0,57.4,30.14,ENE,59,2.0,5.0,88,0.00,,,0.00,VWS V14.01,2013-09-29 06:51:00,
2013-09-29 02:54:00,60.4,56.5,30.14,ENE,61,0.0,5.0,87,0.00,,,0.00,VWS V14.01,2013-09-29 06:54:00,
2013-09-29 02:55:00,60.2,56.3,30.14,ENE,59,0.0,5.0,87,0.00,,,0.00,VWS V14.01,2013-09-29 06:55:00,
2013-09-29 02:56:00,60.1,56.2,30.14,ENE,59,0.0,5.0,87,0.00,,,0.00,VWS V14.01,2013-09-29 06:56:00,
2013-09-29 02:59:00,59.6,55.7,30.14,ENE,59,0.0,5.0,87,0.00,,,0.00,VWS V14.01,2013-09-29 06:59:00,
2013-09-29 03:00:00,59.5,55.6,30.14,ENE,60,0.0,5.0,87,0.00,,,0.00,VWS V14.01,2013-09-29 07:00:00,
2013-09-29 03:01:00,59.3,55.4,30.14,ENE,59,0.0,5.0,87,0.00,,,0.00,VWS V14.01,2013-09-29 07:01:00,
2013-09-29 03:02:00,59.3,55.4,30.14,ENE,60,0.0,5.0,87,0.00,,,0.00,VWS V14.01,2013-09-29 07:02:00,
2013-09-29 03:06:00,58.9,55.0,30.14,ENE,60,0.0,0.0,87,0.00,,,0.00,VWS V14.01,2013-09-29 07:06:00,
2013-09-29 03:07:00,58.7,54.8,30.14,ENE,60,0.0,0.0,87,0.00,,,0.00,VWS V14.01,2013-09-29 07:07:00,
2013-09-29 03:08:00,58.7,54.8,30.14,ENE,60,0.0,0.0,87,0.00,,,0.00,VWS V14.01,2013-09-29 07:08:00,
2013-09-29 03:11:00,58.4,54.5,30.14,ENE,59,0.0,0.0,87,0.00,,,0.00,VWS V14.01,2013-09-29 07:11:00,
2013-09-29 03:14:00,58.3,54.5,30.14,ENE,60,0.0,0.0,87,0.00,,,0.00,VWS V14.01,2013-09-29 07:14:00,
2013-09-29 03:16:00,58.3,54.5,30.14,ENE,60,0.0,0.0,87,0.00,,,0.00,VWS V14.01,2013-09-29 07:16:00,
2013-09-29 03:17:00,58.1,54.3,30.14,ENE,59,0.0,0.0,87,0.00,,,0.00,VWS V14.01,2013-09-29 07:17:00,
2013-09-29 03:19:00,58.1,54.3,30.14,ENE,59,0.0,0.0,87,0.00,,,0.00,VWS V14.01,2013-09-29 07:19:00,
2013-09-29 03:22:00,58.0,54.2,30.13,ENE,59,0.0,0.0,87,0.00,,,0.00,VWS V14.01,2013-09-29 07:22:00,
2013-09-29 03:23:00,57.8,54.0,30.13,ENE,59,0.0,0.0,87,0.00,,,0.00,VWS V14.01,2013-09-29 07:23:00,
2013-09-29 03:24:00,57.8,54.0,30.13,ENE,60,0.0,0.0,87,0.00,,,0.00,VWS V14.01,2013-09-29 07:24:00,
2013-09-29 03:29:00,57.5,54.0,30.13,ENE,59,0.0,0.0,88,0.00,,,0.00,VWS V14.01,2013-09-29 07:29:00,
2013-09-29 03:30:00,57.5,54.0,30.13,ENE,60,0.0,0.0,88,0.00,,,0.00,VWS V14.01,2013-09-29 07:30:00,
2013-09-29 03:31:00,57.5,54.0,30.13,ENE,59,0.0,0.0,88,0.00,,,0.00,VWS V14.01,2013-09-29 07:31:00,
2013-09-29 03:34:00,57.3,53.8,30.13,ENE,60,0.0,0.0,88,0.00,,,0.00,VWS V14.01,2013-09-29 07:34:00,
2013-09-29 03:36:00,57.3,53.8,30.13,ENE,60,0.0,0.0,88,0.00,,,0.00,VWS V14.01,2013-09-29 07:36:00,
2013-09-29 03:40:00,57.2,53.7,30.13,ENE,59,0.0,0.0,88,0.00,,,0.00,VWS V14.01,2013-09-29 07:40:00,
2013-09-29 03:41:00,57.2,53.7,30.13,ENE,60,0.0,0.0,88,0.00,,,0.00,VWS V14.01,2013-09-29 07:41:00,
2013-09-29 03:44:00,57.0,53.8,30.13,ENE,60,0.0,0.0,89,0.00,,,0.00,VWS V14.01,2013-09-29 07:44:00,
2013-09-29 03:46:00,57.0,53.8,30.13,ENE,60,0.0,0.0,89,0.00,,,0.00,VWS V14.01,2013-09-29 07:46:00,
2013-09-29 03:48:00,57.0,53.8,30.13,ENE,60,0.0,0.0,89,0.00,,,0.00,VWS V14.01,2013-09-29 07:48:00,
2013-09-29 03:50:00,56.9,53.7,30.13,ENE,60,0.0,0.0,89,0.00,,,0.00,VWS V14.01,2013-09-29 07:50:00,
2013-09-29 03:53:00,56.9,53.7,30.13,ENE,60,0.0,0.0,89,0.00,,,0.00,VWS V14.01,2013-09-29 07:53:00,
2013-09-29 03:55:00,56.7,53.5,30.13,ENE,60,0.0,0.0,89,0.00,,,0.00,VWS V14.01,2013-09-29 07:55:00,
2013-09-29 03:57:00,56.7,53.8,30.13,ENE,59,0.0,0.0,90,0.00,,,0.00,VWS V14.01,2013-09-29 07:57:00,
2013-09-29 03:58:00,56.7,53.8,30.13,ENE,60,0.0,0.0,90,0.00,,,0.00,VWS V14.01,2013-09-29 07:58:00,
2013-09-29 03:59:00,56.7,53.5,30.13,ENE,60,0.0,0.0,89,0.00,,,0.00,VWS V14.01,2013-09-29 07:59:00,
2013-09-29 04:00:00,56.6,53.7,30.13,ENE,60,0.0,0.0,90,0.00,,,0.00,VWS V14.01,2013-09-29 08:00:00,
2013-09-29 04:04:00,56.6,53.7,30.13,ENE,59,0.0,0.0,90,0.00,,,0.00,VWS V14.01,2013-09-29 08:04:00,
2013-09-29 04:05:00,56.5,53.6,30.13,ENE,59,0.0,0.0,90,0.00,,,0.00,VWS V14.01,2013-09-29 08:05:00,
2013-09-29 04:06:00,56.5,53.6,30.13,ENE,59,0.0,0.0,90,0.00,,,0.00,VWS V14.01,2013-09-29 08:06:00,
2013-09-29 04:07:00,56.5,53.6,30.13,ENE,59,0.0,0.0,90,0.00,,,0.00,VWS V14.01,2013-09-29 08:07:00,
2013-09-29 04:11:00,56.3,53.4,30.13,ENE,60,0.0,0.0,90,0.00,,,0.00,VWS V14.01,2013-09-29 08:11:00,
2013-09-29 04:15:00,56.3,53.4,30.13,ENE,60,0.0,0.0,90,0.00,,,0.00,VWS V14.01,2013-09-29 08:15:00,
2013-09-29 04:16:00,56.3,53.4,30.13,ENE,59,0.0,0.0,90,0.00,,,0.00,VWS V14.01,2013-09-29 08:16:00,
2013-09-29 04:17:00,56.2,53.3,30.13,ENE,59,0.0,0.0,90,0.00,,,0.00,VWS V14.01,2013-09-29 08:17:00,
2013-09-29 04:20:00,56.2,53.6,30.13,ENE,60,0.0,0.0,91,0.00,,,0.00,VWS V14.01,2013-09-29 08:20:00,
2013-09-29 04:21:00,56.2,53.6,30.13,ENE,59,0.0,0.0,91,0.00,,,0.00,VWS V14.01,2013-09-29 08:21:00,
2013-09-29 04:22:00,56.2,53.6,30.13,ENE,59,0.0,0.0,91,0.00,,,0.00,VWS V14.01,2013-09-29 08:22:00,
2013-09-29 04:24:00,56.2,53.6,30.13,ENE,60,0.0,0.0,91,0.00,,,0.00,VWS V14.01,2013-09-29 08:24:00,
2013-09-29 04:28:00,56.0,53.4,30.13,ENE,60,0.0,0.0,91,0.00,,,0.00,VWS V14.01,2013-09-29 08:28:00,
2013-09-29 04:30:00,56.0,53.4,30.13,ENE,60,0.0,0.0,91,0.00,,,0.00,VWS V14.01,2013-09-29 08:30:00,
2013-09-29 04:31:00,56.0,53.4,30.13,ENE,60,0.0,0.0,91,0.00,,,0.00,VWS V14.01,2013-09-29 08:31:00,
2013-09-29 04:33:00,56.0,53.4,30.13,ENE,59,0.0,0.0,91,0.00,,,0.00,VWS V14.01,2013-09-29 08:33:00,
2013-09-29 04:35:00,55.9,53.3,30.13,ENE,59,0.0,0.0,91,0.00,,,0.00,VWS V14.01,2013-09-29 08:35:00,
2013-09-29 04:37:00,55.9,53.3,30.13,ENE,60,0.0,0.0,91,0.00,,,0.00,VWS V14.01,2013-09-29 08:37:00,
2013-09-29 04:38:00,55.9,53.3,30.13,ENE,60,0.0,0.0,91,0.00,,,0.00,VWS V14.01,2013-09-29 08:38:00,
2013-09-29 04:40:00,55.7,53.1,30.13,ENE,60,2.0,3.0,91,0.00,,,0.00,VWS V14.01,2013-09-29 08:40:00,
2013-09-29 05:00:00,55.1,52.8,30.12,ENE,68,0.0,3.0,92,0.00,,,0.00,VWS V14.01,2013-09-29 09:00:00,
2013-09-29 05:30:00,54.7,52.4,30.13,ENE,68,0.0,0.0,92,0.00,,,0.00,VWS V14.01,2013-09-29 09:30:00,
2013-09-29 06:00:00,54.7,52.7,30.12,ENE,68,0.0,4.0,93,0.00,,,0.00,VWS V14.01,2013-09-29 10:00:00,
2013-09-29 06:30:00,58.6,57.2,30.12,ENE,68,2.0,11.0,95,0.00,,,0.00,VWS V14.01,2013-09-29 10:30:00,
2013-09-29 07:00:00,59.5,58.1,30.13,ENE,68,6.0,13.0,95,0.00,,,0.00,VWS V14.01,2013-09-29 11:00:00,
2013-09-29 07:30:00,59.8,57.8,30.13,ENE,68,6.0,13.0,93,0.00,,,0.00,VWS V14.01,2013-09-29 11:30:00,
2013-09-29 08:00:00,60.7,57.1,30.13,ENE,68,6.0,13.0,88,0.00,,,0.00,VWS V14.01,2013-09-29 12:00:00,
2013-09-29 08:30:00,65.0,56.5,30.13,ENE,68,6.0,13.0,74,0.00,,,0.00,VWS V14.01,2013-09-29 12:30:00,
2013-09-29 09:00:00,66.4,55.5,30.14,ENE,68,6.0,14.0,68,0.00,,,0.00,VWS V14.01,2013-09-29 13:00:00,
2013-09-29 09:30:00,67.3,56.4,30.15,ENE,68,6.0,13.0,68,0.00,,,0.00,VWS V14.01,2013-09-29 13:30:00,
2013-09-29 10:00:00,67.9,56.5,30.14,ENE,68,6.0,13.0,67,0.00,,,0.00,VWS V14.01,2013-09-29 14:00:00,
2013-09-29 10:30:00,68.3,56.1,30.14,ENE,68,6.0,13.0,65,0.00,,,0.00,VWS V14.01,2013-09-29 14:30:00,
2013-09-29 11:00:00,68.4,55.3,30.14,ENE,68,5.0,12.0,63,0.00,,,0.00,VWS V14.01,2013-09-29 15:00:00,
2013-09-29 11:30:00,68.3,55.2,30.14,ENE,68,5.0,13.0,63,0.00,,,0.00,VWS V14.01,2013-09-29 15:30:00,
2013-09-29 12:00:00,68.6,56.0,30.13,ENE,68,5.0,12.0,64,0.00,,,0.00,VWS V14.01,2013-09-29 16:00:00,
2013-09-29 12:30:00,69.1,55.5,30.13,ENE,68,5.0,14.0,62,0.00,,,0.00,VWS V14.01,2013-09-29 16:30:00,
2013-09-29 13:00:00,69.1,54.2,30.13,ENE,68,4.0,11.0,59,0.00,,,0.00,VWS V14.01,2013-09-29 17:00:00,
2013-09-29 13:30:00,68.4,54.0,30.11,East,90,3.0,11.0,60,0.00,,,0.00,VWS V14.01,2013-09-29 17:30:00,
2013-09-29 14:00:00,68.3,54.3,30.10,East,90,3.0,9.0,61,0.00,,,0.00,VWS V14.01,2013-09-29 18:00:00,
2013-09-29 14:30:00,68.8,53.4,30.09,East,90,2.0,8.0,58,0.00,,,0.00,VWS V14.01,2013-09-29 18:30:00,
2013-09-29 15:00:00,68.8,53.0,30.08,ESE,112,2.0,9.0,57,0.00,,,0.00,VWS V14.01,2013-09-29 19:00:00,
2013-09-29 15:30:00,68.9,53.1,30.07,East,90,3.0,8.0,57,0.00,,,0.00,VWS V14.01,2013-09-29 19:30:00,
2013-09-29 16:00:00,68.4,54.0,30.07,East,90,3.0,8.0,60,0.00,,,0.00,VWS V14.01,2013-09-29 20:00:00,
2013-09-29 16:30:00,67.6,54.1,30.06,East,90,1.0,7.0,62,0.00,,,0.00,VWS V14.01,2013-09-29 20:30:00,
2013-09-29 17:00:00,66.8,52.9,30.05,ESE,112,1.0,6.0,61,0.00,,,0.00,VWS V14.01,2013-09-29 21:00:00,
2013-09-29 17:30:00,64.7,52.7,30.05,East,90,1.0,7.0,65,0.00,,,0.00,VWS V14.01,2013-09-29 21:30:00,
2013-09-29 18:00:00,63.4,52.7,30.05,East,90,1.0,6.0,68,0.00,,,0.00,VWS V14.01,2013-09-29 22:00:00,
2013-09-29 18:30:00,62.4,53.3,30.05,East,90,1.0,7.0,72,0.00,,,0.00,VWS V14.01,2013-09-29 22:30:00,
2013-09-29 19:00:00,61.5,53.2,30.05,East,90,2.0,7.0,74,0.00,,,0.00,VWS V14.01,2013-09-29 23:00:00,
2013-09-29 19:30:00,61.0,54.1,30.04,East,90,3.0,8.0,78,0.00,,,0.00,VWS V14.01,2013-09-29 23:30:00,
2013-09-29 20:00:00,60.7,54.2,30.05,East,90,2.0,9.0,79,0.00,,,0.00,VWS V14.01,2013-09-30 00:00:00,
2013-09-29 20:30:00,60.2,54.0,30.05,East,90,1.0,7.0,80,0.00,,,0.00,VWS V14.01,2013-09-30 00:30:00,
2013-09-29 21:00:00,59.8,54.0,30.05,ENE,68,0.0,4.0,81,0.00,,,0.00,VWS V14.01,2013-09-30 01:00:00,
2013-09-29 21:30:00,59.3,53.1,30.04,ENE,68,0.0,5.0,80,0.00,,,0.00,VWS V14.01,2013-09-30 01:30:00,
2013-09-29 22:00:00,59.6,51.3,30.04,East,90,1.0,6.0,74,0.00,,,0.00,VWS V14.01,2013-09-30 02:00:00,
2013-09-29 22:30:00,60.2,51.9,30.04,ENE,68,1.0,6.0,74,0.00,,,0.00,VWS V14.01,2013-09-30 02:30:00,
2013-09-29 23:00:00,60.2,51.5,30.04,ENE,68,2.0,7.0,73,0.00,,,0.00,VWS V14.01,2013-09-30 03:00:00,
2013-09-29 23:30:00,59.9,51.6,30.03,ENE,68,2.0,8.0,74,0.00,,,0.00,VWS V14.01,2013-09-30 03:30:00,